Home   Weather   Washington DC   Past weeks
Flag for USA

Past Weather in Washington DC, USA — Yesterday and Last 2 Weeks

Now
45 °F

Passing clouds.


Feels Like: 37 °F
Forecast: 53 / 34 °F
Wind: 20 mph from Northwest

Location: Reagan National Airport

Current Time: Mar 22, 2019 at 9:50:34 pm

Latest Report: Mar 22, 2019 at 8:52 pm


Visibility: 10 mi

Pressure: 29.78 "Hg

Humidity: 42%

Dew Point: 23 °F

Location of Washington DCLocation

Past Weather in Washington DC — Graph

°F

Washington DC Temperature Yesterday

Maximum temperature yesterday: 49 °F (at 1:36 pm)
Minimum temperature yesterday: 43 °F (at 11:01 pm)
Average temperature yesterday: 46 °F

High & Low Weather Summary for the Past Weeks

 TemperatureHumidityPressure
High77 °F (Mar 15, 1:52 pm)93% (Mar 10, 7:44 am)30.49 "Hg (Mar 10, 7:44 am)
Low33 °F (Mar 8, 5:52 am)19% (Mar 11, 2:52 pm)29.53 "Hg (Mar 22, 12:52 am)
Average48 °F56%30.12 "Hg
* Reported Mar 7 6:52 pm — Mar 22 7:52 pm, Washington DC. Weather by CustomWeather, © 2019

Note: Actual official high and low records may vary slightly from our data, if they occured in-between our weather recording intervals... More about our weather records

Advertising

Washington DC Weather History for the Previous 24 Hours

Scroll right to see more
 ConditionsComfort  
Time TempWeatherWind HumidityBarometerVisibility
7:52 pm
Fri, Mar 22
45 °FPassing clouds.13 mph51%29.75 "Hg10 mi
6:52 pm48 °FPartly sunny.22 mph48%29.70 "Hg10 mi
6:15 pm48 °FScattered clouds.18 mph54%29.68 "Hg10 mi
4:52 pm45 °FBroken clouds.14 mph71%29.64 "Hg10 mi
4:33 pm41 °FLight rain. Cloudy.16 mph80%29.65 "Hg7 mi
4:12 pm48 °FStrong thunderstorms. More clouds than sun.40 mph62%29.65 "Hg9 mi
4:02 pm53 °FLight rain. More clouds than sun.10 mph47%29.59 "Hg10 mi
3:52 pm52 °FCloudy.7 mph47%29.59 "Hg10 mi
3:10 pm52 °FLight rain. Mostly cloudy.14 mph45%29.61 "Hg10 mi
2:52 pm53 °FPartly sunny.8 mph43%29.61 "Hg10 mi
1:52 pm54 °FPartly sunny.13 mph43%29.63 "Hg10 mi
12:52 pm53 °FPartly sunny.20 mph45%29.65 "Hg10 mi
11:52 am48 °FPartly sunny.18 mph50%29.67 "Hg10 mi
10:52 am47 °FPartly sunny.18 mph50%29.67 "Hg10 mi
9:52 am47 °FPartly sunny.22 mph52%29.66 "Hg10 mi
8:52 am47 °FScattered clouds.25 mph52%29.63 "Hg10 mi
7:52 am47 °FBroken clouds.23 mph59%29.61 "Hg10 mi
6:52 am47 °FMostly cloudy.23 mph64%29.59 "Hg10 mi
5:52 am47 °FMostly cloudy.21 mph71%29.58 "Hg10 mi
4:52 am45 °FLight rain. Overcast.17 mph76%29.57 "Hg10 mi
3:52 am45 °FOvercast.17 mph76%29.55 "Hg10 mi
2:52 am44 °FLight rain. Mostly cloudy.17 mph79%29.55 "Hg10 mi
1:52 am44 °FLight rain. Mostly cloudy.18 mph79%29.54 "Hg10 mi
12:52 am44 °FRain. Mostly cloudy.25 mph82%29.53 "Hg3 mi
12:16 am44 °FLight rain. Mostly cloudy.18 mph82%29.54 "Hg9 mi
11:52 pm
Thu, Mar 21
44 °FOvercast.18 mph82%29.54 "Hg9 mi
11:27 pm43 °FLight rain. Fog.21 mph86%29.54 "Hg5 mi
11:01 pm43 °FLight rain. Fog.23 mph86%29.54 "Hg4 mi
10:21 pm44 °FFog.23 mph85%29.55 "Hg5 mi
9:52 pm44 °FLight rain. Fog.20 mph85%29.55 "Hg6 mi
9:21 pm45 °FLight rain. Mostly cloudy.22 mph82%29.56 "Hg5 mi
Weather by CustomWeather, © 2019

See weather overview